DMSP 5D-2 F13 DEB, 42327

Orbit data source: Space-Track

DMSP 5D-2 F13 DEB, 42327 is space debris in SSO originally from a launch on Fri, 24 Mar 1995 UTC launched from the Air Force Western Test Range (AFWTR). Debris objects in space refer to the collection of defunct objects orbiting the Earth. Examples of debris include non-operational satellites, rocket bodies, and fragments generated from explosions, collisions, or faulty payload assembly.

Loading next visibility...
Identifier
42327, 1995-015JV
Orbit
SSO
Country
Flag of USUS
Related business
Manufacturer
Unknown
Mission
Spacecraft
Bus & Motor
Unknown
Mass
Unknown
Launch date (UTC)
1995-03-24 (31 years ago)
Launch vehicle
Unknown
Launch site
Air Force Western Test Range (AFWTR)
Object type
Payload
Rocket body
Debris
Shape & HBR
Unknown shape, 0.1 m
Radar Cross Section
Small (<0.1 m²)

Expand to show TLE details & history
Last TLE update: 20 hours ago

TLE from 20 hours ago
0 DMSP 5D-2 F13 DEB
1 42327U 95015JV  25340.37541685  .00009987  00000-0  32598-2 0  9993
2 42327  98.6865  12.8918 0005742 210.3213 149.7642 14.38782194525968
Epoch: 2025-12-06T09:00Z
TLE epoch observation values (Epoch: 2025-12-06T09:00:36.015Z)
Latitude
-0.00009°
Longitude
162.3377°
Altitude
769.009 km
Speed
7.468 km/s
True Right ascension
00h 51m 34s
True Declination
0° 00' 00"
Sunlit
Object was in full shadow at epoch
Visualization orbit readout
Latitude
Unknown
Longitude
Unknown
Altitude
Unknown
Speed
Unknown
Apparent Right ascension
Unknown
Apparent Declination
Unknown
Sunlit
N/A
Visualization observer readout
Local Sidereal Time
02:56:43
Azimuth
Unknown
Elevation
Unknown
Doppler factor
Unknown
Orbital elements
Apogee altitude
763.756 km
Perigee altitude
755.559 km
Semi-major axis
7,137.794 km
Eccentricity
0.00057
Inclination
98.6865°
RAAN
12.8918°
Arg. of periapsis
210.3213°
True anomaly
149.79731°
Mean anomaly
149.7642°
Eccentric anomaly
149.78076°
Mean motion
3.59913 °/min
Orbital period
100.02 mins
BSTAR
0.0032598

Documentation

Showing up to 5 results
|